Location: C�an Torras
(41.5052°N, 1.9280°E)
Time: 18:54:32
(UTC+00:00)

Cosmos 1937 Rocket - Pass Details

Date: 20 January 2021
Orbit: 746 x 780 km, 74.0° (Epoch: 02 March)

Event Time Altitude Azimuth Distance (km) Brightness Sun altitude
Rises 18:50:13 0° 181° (S) 3,233 6.9 -21.6°
Reaches altitude 10° 18:52:39 10° 175° (S) 2,314 6.0 -22.1°
Enters shadow 18:56:44 42° 133° (SE) 1,101 4.0 -22.8°
